Location: 10033 Water Well
(34.0865°N, 106.8959°W)
Time: 16:42:31
(UTC+00:00)

Cosmos 1933 Rocket - Pass Details

Date: 13 January 2026
Orbit: 600 x 623 km, 82.5° (Epoch: 10 February)

Event Time Altitude Azimuth Distance (km) Brightness Sun altitude
Rises 01:55:59 0° 354° (N) 2,893 6.9 -19.8°
Reaches altitude 10° 01:58:13 10° 354° (N) 1,980 6.1 -20.2°
Maximum altitude 02:02:36 86° 81° (E) 617 3.4 -21.1°
Drops below altitude 10° 02:06:56 10° 173° (S) 1,951 6.2 -22.0°
Sets 02:09:07 0° 174° (S) 2,847 7.0 -22.5°
